Regional Weather Roundup
Issued by NWS

Home | Current Version | Previous Version | Text Only | Print | Product List | Glossary On
Versions: 1 2 3 4 5 6 7 8 9 10 11 12 13 14 15 16 17 18 19 20 21 22 23 24 25 26 27 28 29 30 31 32 33 34 35 36 37 38 39 40 41 42 43 44 45 46 47 48 49 50
000
ASUS43 KDTX 241110
RWRMI
MICHIGAN HOURLY REGIONAL WEATHER ROUNDUP
NATIONAL WEATHER SERVICE DETROIT/PONTIAC MI
600 AM EST FRI NOV 24 2017

NOTE: "FAIR" INDICATES FEW OR NO CLOUDS BELOW 12,000 FEET WITH NO
SIGNIFICANT WEATHER AND/OR OBSTRUCTION TO VISIBILITY.

MIZ047>049-052>055-059>063-066>070-074>076-081>083-241200-
SOUTHEAST LOWER MICHIGAN

CITY           SKY/WX    TMP DP  RH WIND       PRES   REMARKS
ADRIAN         CLEAR     29  23  78 SW5       29.88F WCI  24
ALMA           CLEAR     32  28  83 S8        29.77F WCI  25
ANN ARBOR      CLEAR     27  23  85 S6        29.87S WCI  20
BAD AXE        CLEAR     31  24  76 SW8       29.78F WCI  24
CARO           CLEAR     32  25  76 S6        29.79F WCI  26
DETROIT CITY   CLEAR     33  25  72 S8        29.88F WCI  26
DETROIT        PTCLDY    30  25  81 S6        29.88F WCI  24
FLINT          CLEAR     35  24  64 S9        29.83S WCI  28
GROSSE ILE     CLEAR     35  30  81 SW9       29.88S WCI  28
HILLSDALE      CLEAR     32  23  69 SW6       29.85R WCI  26
HOWELL         CLEAR     32  25  74 S8        29.83S WCI  25

CITY           SKY/WX    TMP DP  RH WIND       PRES   REMARKS
JACKSON        CLEAR     34  23  64 S9        29.84S WCI  27
LAMBERTVILLE   CLEAR     33  26  73 S6        29.89F WCI  28
LANSING        CLEAR     33  25  72 S9        29.82S WCI  25
LAPEER         FAIR      33  25  72 SW7       29.82S WCI  26
MASON          CLEAR     33  25  70 S3        29.83S
MONROE         CLEAR     32  26  77 S7        29.88S WCI  26
MT. CLEMENS    CLEAR     31  28  85 S9        29.85F WCI  23
PONTIAC        MOCLDY    31  25  78 S7        29.83F WCI  24
PORT HOPE        N/A     34  24  67 VRB5      29.76F WCI  30
PORT HURON     CLEAR     32  25  74 S6        29.85F WCI  26
TRI CITIES     CLEAR     33  26  75 S12       29.77F WCI  24
MIDLAND        FAIR      32  26  80 S6        29.76F WCI  26
TROY           CLEAR     33  25  72 S7        29.88S WCI  27
SAGINAW HB     CLEAR     32  27  80 S10       29.78F WCI  24
$$
MIZ043>046-050>051-056>058-064>065-071>073-077>080-241200-
SOUTHWEST LOWER MICHIGAN

CITY           SKY/WX    TMP DP  RH WIND       PRES   REMARKS
BATTLE CREEK   CLEAR     32  24  72 S12       29.83F WCI  23
BENTON HARBOR  CLEAR     34  25  69 S7        29.82F WCI  28
BIG RAPIDS     CLOUDY    33  30  88 CALM      29.72F
COLDWATER      CLEAR     32  23  68 SW7       29.85S WCI  26
FREMONT        MOCLDY    34  32  94 S7        29.74F WCI  28
HOLLAND        CLEAR     33  26  75 S10       29.80F WCI  25
GRAND RAPIDS   CLEAR     34  27  75 SW10      29.79F WCI  26
IONIA          FAIR      33  26  76 S8        29.79S WCI  26
KALAMAZOO      CLEAR     32  24  72 S10       29.83F WCI  24
LUDINGTON      MOCLDY    44  35  70 SW12G23   29.70F
MARSHALL       CLEAR     32  23  69 SW7       29.84S WCI  26
MOUNT PLEASANT CLOUDY    32  26  77 S6        29.74F WCI  27
MUSKEGON       CLOUDY    45  35  68 SW16      29.76F
SOUTH HAVEN    CLEAR     36  26  67 S6        29.82S WCI  31
$$
MIZ016>042-241200-
NORTHERN LOWER MICHIGAN

CITY           SKY/WX    TMP DP  RH WIND       PRES   REMARKS
ALPENA         CLOUDY    34  29  82 S6        29.67F WCI  29
BEAVER ISLAND  CLOUDY    45  37  73 S20G29    29.53F
BELLAIRE       MOCLDY    38  32  79 S8        29.64F WCI  32
CADILLAC       PTCLDY    35  31  87 SW13      29.68F WCI  26
CHARLEVOIX     MOCLDY    38  31  78 S8        29.61F WCI  32
FRANKFORT      CLOUDY    43  34  69 S12G21    29.65F
GAYLORD        CLOUDY    33  27  78 SW13      29.62F WCI  24
GRAYLING       CLOUDY    34  28  79 SW5       29.68S WCI  30
HARBOR SPRINGS PTCLDY    38  31  74 SW10      29.59F WCI  31
HOUGHTON LAKE  CLOUDY    35  29  78 SW13      29.70S WCI  26
MANISTEE       PTCLDY    34  30  85 SE3       29.68F
OSCODA         CLOUDY    33  26  76 SW12G20   29.71F WCI  24
PELLSTON       CLOUDY    39  30  70 SW13G23   29.58F WCI  31
ROGERS CITY    MOCLDY    34  28  80 S7        29.64F WCI  28
TRAVERSE CITY  PTCLDY    40  30  67 SW12G17   29.62F WCI  33
$$
MIZ007>008-015-241200-
EASTERN UPPER MICHIGAN

CITY           SKY/WX    TMP DP  RH WIND       PRES   REMARKS
KINROSS        CLOUDY    37  31  78 S12G17    29.53F WCI  29
MACKINAC ISLAN MOCLDY    40  30  68 S15G23    29.55F WCI  31
NEWBERRY       LGT RAIN  40  37  90 S17G26    29.48F WCI  31
S. S. MARIE    LGT RAIN  36  30  79 SE7       29.54F WCI  30
MUNISING         N/A     42  31  64 S17G28    29.40F
$$
MIZ004>006-011>014-085-241200-
CENTRAL UPPER MICHIGAN

CITY           SKY/WX    TMP DP  RH WIND       PRES   REMARKS
MANISTIQUE     CLOUDY    42  32  68 SW17G26   29.50S
ESCANABA       CLOUDY    41  30  65 SW14G21   29.49
MENOMINEE      MOCLDY    39  29  67 SW12      29.53F WCI  32
SAWYER-GWINN   CLEAR     35  27  72 S17       29.40F WCI  25
$$
MIZ001>003-009>011-084-241200-
WESTERN UPPER MICHIGAN

CITY           SKY/WX    TMP DP  RH WIND       PRES   REMARKS
IRON MOUNTAIN  CLOUDY    38  26  62 S8        29.44F WCI  32
HOUGHTON       CLOUDY    43  31  62 SW8       29.27F
COPPER HARBOR    N/A     42  29  59 SW16G25   29.23F
IRONWOOD       CLOUDY    44  33  65 SW15G22   29.34F
$$

ABBREVIATIONS USED IN REMARKS
   TC - TEMPERATURE IN CELSIUS
  WCI - WIND CHILL INDEX
   HX - HEAT INDEX
  VSB - VISIBILITY




USA.gov is the U.S. government's official web portal to all federal, state and local government web resources and services.